Yakima, WA
on Saturday, February 9, 2013

Saturday
Previous Day Next Day
Daily Summary
 ActualAverageRecord
Temperature
Mean Temperature °F 35°F  
Max Temperature 52°F 45°F 60°F (1951)
Min Temperature 25°F 25°F 6°F (1989)
Degree Days
Heating Degree Days 26 30  
Month to date heating degree days 227 275  
Since 1 July heating degree days 3496 3993  
Cooling Degree Days 0 0  
Month to date cooling degree days 0 0  
Year to date cooling degree days 0 0  
Moisture
Dew Point 25°F   
Average Humidity 61    
Maximum Humidity 81    
Minimum Humidity 41    
Precipitation
Precipitation 0.00 in 0.03 in 0.54 in (1961)
Month to date precipitation T 0.26  
Year to date precipitation 0.10 1.40  
Snow
Snow 0.00 in 0.10 in 4.00 in (1959)
Month to date snowfall 0.0 1.0  
Year to date snowfall 1.1 6.3  
Since 1 July snowfall 15.3 19.3  
Snow Depth 0.00 in   
Wind
Wind Speed 5 mph   
Max Wind Speed 13 mph   
Max Gust Speed 16 mph   
Visibility 10 miles   
Events     

Key: T is trace of precipitation, MM is missing value
Source: NWS Daily Summary
Time(PST)TemperatureDew PointHumidity Pressure Visibility Wind DirectionWind SpeedGust SpeedPrecipitationEvents Conditions
12:53 AM 36.0°F 23.0°F 59% 30.15 in 10.0 miles North 9.2 mph - N/A   Clear
1:53 AM 32.0°F 21.9°F 66% 30.15 in 10.0 miles West 8.1 mph - N/A   Clear
2:53 AM 28.0°F 21.0°F 75% 30.16 in 10.0 miles West 8.1 mph - N/A   Clear
3:53 AM 26.1°F 19.9°F 78% 30.14 in 10.0 miles West 10.4 mph - N/A   Clear
4:53 AM 27.0°F 21.0°F 78% 30.14 in 10.0 miles West 6.9 mph - N/A   Clear
5:53 AM 28.9°F 21.0°F 72% 30.14 in 10.0 miles West 6.9 mph - N/A   Clear
6:53 AM 26.6°F 19.4°F 74% 30.12 in 10.0 miles West 5.8 mph - N/A   Clear
7:53 AM 28.0°F 21.9°F 78% 30.17 in 10.0 miles West 8.1 mph - N/A   Clear
8:53 AM 37.0°F 27.0°F 67% 30.16 in 10.0 miles WNW 3.5 mph - N/A   Clear
9:53 AM 37.0°F 26.1°F 65% 30.15 in 10.0 miles Calm Calm - N/A   Clear
10:53 AM 42.1°F 27.0°F 55% 30.16 in 10.0 miles Calm Calm - N/A   Clear
11:53 AM 48.0°F 27.0°F 44% 30.13 in 10.0 miles Calm Calm - N/A   Clear
12:53 PM 50.0°F 28.0°F 43% 30.10 in 10.0 miles Calm Calm - N/A   Clear
1:53 PM 50.0°F 28.0°F 43% 30.09 in 10.0 miles South 5.8 mph - N/A   Clear
2:53 PM 51.1°F 28.9°F 43% 30.10 in 10.0 miles Calm Calm - N/A   Clear
3:53 PM 52.0°F 30.0°F 43% 30.10 in 10.0 miles NW 12.7 mph - N/A   Clear
4:53 PM 50.0°F 28.9°F 44% 30.12 in 10.0 miles North 6.9 mph - N/A   Clear
5:53 PM 46.0°F 28.9°F 51% 30.15 in 10.0 miles Calm Calm - N/A   Clear
6:53 PM 39.9°F 28.0°F 63% 30.18 in 10.0 miles Calm Calm - N/A   Clear
7:53 PM 34.0°F 26.1°F 73% 30.19 in 10.0 miles WNW 3.5 mph - N/A   Clear
8:53 PM 37.9°F 27.0°F 65% 30.21 in 10.0 miles WSW 3.5 mph - N/A   Clear
9:53 PM 39.0°F 27.0°F 62% 30.22 in 10.0 miles West 5.8 mph - N/A   Clear
10:53 PM 30.9°F 25.0°F 79% 30.23 in 10.0 miles WNW 6.9 mph - N/A   Clear
11:53 PM 30.0°F 24.1°F 79% 30.24 in 10.0 miles West 4.6 mph - N/A   Clear
Moon Phase
Feb. 09 Feb. 10 Feb. 17 Feb. 25 Mar. 04
Sunrise:07:14 AM (PST) Moon Rise:06:28 AM (PST)2/9
Sunset:05:18 PM (PST) Moon Set:05:09 PM (PST)2/9

Copyright © 2014 The Weather Underground, Inc.